EW3154 Weather Reports


time (UTC)temp
F
wind
direction
speed
knots
gust
knots
rain 1hr
in
rain 24hr
in
rain mn
in
humidity
%
barometer
mb
20181219110145 32 214 0.0 0.0 0.00 0.01 0.00 92 1027.1
20181219104650 32 214 0.0 0.0 0.00 0.01 0.00 94 1027.2
20181219103146 32 254 0.0 0.0 0.00 0.01 0.00 94 1027.5
20181219101647 31 253 0.0 0.0 0.00 0.01 0.00 95 1027.6
20181219100128 31 253 0.0 0.0 0.00 0.01 0.00 95 1028.0
20181219094601 31 253 0.0 0.0 0.00 0.01 0.00 96 1028.2
20181219093112 30 253 0.0 0.0 0.00 0.01 0.00 96 1028.4
20181219091618 30 253 0.0 0.0 0.00 0.01 0.00 96 1028.6
20181219090116 30 253 0.0 0.0 0.00 0.01 0.00 96 1028.6
20181219084704 30 253 0.0 0.0 0.00 0.01 0.00 96 1028.6
20181219083043 29 253 0.0 0.0 0.00 0.01 0.00 97 1028.6
20181219081535 29 253 0.0 0.0 0.00 0.01 0.00 96 1028.5
20181219080033 28 253 0.0 0.0 0.00 0.01 0.00 96 1028.6
20181219074613 28 253 0.0 0.0 0.00 0.01 0.00 97 1028.4
20181219073045 28 253 0.0 0.0 0.00 0.01 0.00 96 1028.3
20181219071607 28 253 0.0 0.0 0.00 0.01 0.00 96 1028.2
20181219070026 28 253 0.0 0.0 0.00 0.01 0.00 96 1028.3
20181219064607 27 253 0.0 0.0 0.00 0.01 0.00 96 1028.4
20181219063024 27 253 0.0 0.0 0.00 0.01 0.00 96 1028.2
20181219061529 27 253 0.0 0.0 0.00 0.01 0.00 96 1027.9
20181219060029 27 253 0.0 0.0 0.00 0.01 0.00 96 1027.9
20181219054536 27 253 0.0 0.0 0.00 0.01 0.00 96 1027.9
20181219053034 27 253 0.0 0.0 0.00 0.01 0.00 96 1028.0
20181219051519 26 253 0.0 0.0 0.00 0.01 0.00 96 1028.1
20181219050125 26 253 0.0 0.0 0.00 0.01 0.00 96 1028.1
20181219044545 26 253 0.0 0.0 0.00 0.01 0.00 96 1028.1
20181219043023 25 253 0.0 0.0 0.00 0.01 0.00 96 1027.9
20181219041524 25 253 0.0 0.0 0.00 0.01 0.00 96 1027.8
20181219040033 25 253 0.0 0.0 0.00 0.01 0.00 96 1028.0
20181219034539 24 253 0.0 0.0 0.00 0.01 0.00 96 1028.2
20181219033011 24 253 0.0 0.0 0.00 0.01 0.00 96 1028.3
20181219031510 24 253 0.0 0.0 0.00 0.01 0.00 96 1028.4
20181219030033 24 253 0.0 0.0 0.00 0.01 0.00 96 1028.5
20181219024533 25 253 0.0 0.9 0.00 0.01 0.00 96 1028.5
20181219023012 25 253 0.0 0.0 0.00 0.01 0.00 96 1028.6
20181219021504 25 253 0.0 0.0 0.00 0.01 0.00 95 1028.6
20181219020210 26 253 0.0 0.0 0.00 0.01 0.00 95 1028.7
20181219014640 26 253 0.0 0.0 0.00 0.01 0.00 95 1028.7
20181219013156 27 253 0.0 0.0 0.00 0.01 0.00 95 1028.9
20181219011722 27 253 0.0 1.7 0.00 0.01 0.00 95 1028.8
20181219010127 28 253 0.0 0.0 0.00 0.01 0.00 95 1028.5
20181219004625 28 253 0.0 0.9 0.00 0.01 0.00 95 1028.5
20181219003117 29 253 0.0 0.0 0.00 0.01 0.00 95 1028.7
20181219001622 30 253 0.0 0.0 0.00 0.01 0.00 95 1028.9
20181219000122 30 253 0.0 0.0 0.00 0.01 0.00 95 1029.3
20181218234626 30 253 0.0 0.0 0.00 0.01 0.00 95 1029.4
20181218233059 30 253 0.0 0.0 0.00 0.01 0.00 95 1029.4
20181218231638 30 253 0.0 0.0 0.00 0.01 0.00 95 1029.7
20181218230124 30 253 0.0 0.0 0.00 0.01 0.00 95 1029.8
20181218224600 30 253 0.0 0.0 0.00 0.01 0.01 95 1030.0
20181218223127 30 253 0.0 0.0 0.00 0.01 0.01 94 1030.1
20181218221559 31 253 0.0 0.0 0.00 0.01 0.01 94 1030.2
20181218220048 31 253 0.0 0.0 0.00 0.01 0.01 94 1030.2
20181218214554 31 253 0.0 0.0 0.00 0.01 0.01 94 1030.4
20181218213101 31 253 0.0 0.0 0.00 0.01 0.01 94 1030.4
20181218211617 31 253 0.0 0.0 0.00 0.01 0.01 94 1030.4
20181218210119 31 253 0.0 0.0 0.00 0.01 0.01 94 1030.6
20181218204615 31 253 0.0 0.0 0.00 0.01 0.01 94 1030.5
20181218203107 31 253 0.0 0.0 0.00 0.01 0.01 94 1030.5
20181218201555 31 253 0.0 0.0 0.00 0.01 0.01 94 1030.5
20181218200045 31 253 0.0 0.0 0.00 0.01 0.01 94 1030.7
20181218194630 31 253 0.0 0.0 0.00 0.01 0.01 94 1030.7
20181218193115 31 253 0.0 0.0 0.00 0.01 0.01 94 1030.8
20181218191711 31 253 0.0 0.0 0.00 0.01 0.01 94 1030.9
20181218190047 31 253 0.0 0.0 0.00 0.01 0.01 94 1031.0
20181218184556 31 253 0.0 0.0 0.00 0.01 0.01 93 1031.1
20181218183130 31 253 0.0 0.0 0.00 0.01 0.01 93 1031.0
20181218181600 31 253 0.0 0.0 0.00 0.01 0.01 93 1030.9
20181218180102 31 253 0.0 0.0 0.00 0.01 0.01 93 1030.9
20181218174615 32 253 0.0 0.0 0.00 0.01 0.01 92 1030.9
20181218173037 32 253 0.0 0.0 0.00 0.01 0.01 91 1030.9
20181218170025 32 253 0.0 0.0 0.00 0.01 0.01 90 1030.9
20181218164543 32 253 0.0 1.7 0.00 0.01 0.01 90 1030.6
20181218163030 32 232 0.9 2.6 0.00 0.01 0.01 91 1030.6
20181218161541 32 210 0.0 1.7 0.00 0.01 0.01 91 1030.6
20181218160037 32 277 0.0 0.9 0.00 0.01 0.01 92 1030.8
20181218154546 32 277 0.0 0.0 0.00 0.01 0.01 92 1030.9
20181218153026 32 277 0.0 1.7 0.00 0.01 0.01 93 1031.0
20181218151520 31 277 0.0 0.0 0.01 0.01 0.01 93 1031.0
20181218150022 31 277 0.0 0.0 0.01 0.01 0.01 92 1031.0
20181218144550 32 277 0.0 0.0 0.01 0.01 0.01 91 1031.0
20181218143031 32 277 0.0 0.9 0.01 0.01 0.01 89 1031.2
20181218141531 33 277 0.0 1.7 0.00 0.00 0.00 88 1031.2
20181218140022 34 306 0.0 0.0 0.00 0.00 0.00 86 1031.3
20181218134531 34 306 0.0 0.9 0.00 0.00 0.00 85 1031.4
20181218133032 34 303 0.0 0.9 0.00 0.00 0.00 85 1031.5
20181218131514 34 5 0.0 1.7 0.00 0.00 0.00 86 1031.5
20181218130036 34 89 0.0 3.5 0.00 0.00 0.00 88 1031.6
20181218124515 34 116 0.0 0.0 0.00 0.00 0.00 89 1031.8
20181218123015 33 116 0.0 0.0 0.00 0.00 0.00 91 1031.6
20181218121521 33 116 0.0 0.0 0.00 0.00 0.00 91 1031.7
20181218120005 33 116 0.0 0.0 0.00 0.00 0.00 93 1031.7
20181218114716 32 116 0.0 0.0 0.00 0.00 0.00 93 1031.8
20181218113153 31 116 0.0 0.0 0.00 0.00 0.00 94 1032.0
20181218111640 31 116 0.0 0.0 0.00 0.00 0.00 96 1032.3